Location: Alafon
(8.4500°N, 4.2333°E)
Time: 17:50:35
(UTC+00:00)

SR - Pass Details

Date: 01 August 2021
Orbit: 581 x 874 km, 66.7° (Epoch: 18 September)

Event Time Altitude Azimuth Distance (km) Brightness Sun altitude
Rises 05:16:16 0° 224° (SW) 3,435 - -5.2°
Exits shadow 05:17:00 - 226° (SW) 3,184 ? -5.0°
Reaches altitude 10° 05:19:05 10° 235° (SW) 2,512 ? -4.5°
Maximum altitude 05:23:59 27° 292° (WNW) 1,595 ? -3.4°
Drops below altitude 10° 05:28:51 10° 349° (N) 2,491 ? -2.2°
Sets 05:31:39 0° 1° (N) 3,401 ? -1.6°
